GW6140 Weather Reports


time (UTC)temp
F
wind
direction
speed
knots
gust
knots
rain 1hr
in
rain 24hr
in
rain mn
in
humidity
%
barometer
mb
20260502130645 47 86 1.7 1.7 0.00 0.00 0.00 80 1015.0
20260502130145 47 96 0.0 0.0 0.00 0.00 0.00 80 1015.0
20260502123644 46 81 1.7 2.6 0.00 0.00 0.00 81 1015.0
20260502123144 46 83 1.7 2.6 0.00 0.00 0.00 81 1015.0
20260502122644 46 89 2.6 4.3 0.00 0.00 0.00 81 1015.0
20260502122145 46 75 2.6 4.3 0.00 0.00 0.00 81 1015.0
20260502121644 46 79 3.5 5.2 0.00 0.00 0.00 81 1015.0
20260502121145 45 82 4.3 5.2 0.00 0.00 0.00 81 1016.0
20260502120645 45 90 2.6 4.3 0.00 0.00 0.00 81 1015.0
20260502120144 45 75 1.7 1.7 0.00 0.00 0.00 81 1015.0
20260502115644 45 72 0.0 1.7 0.00 0.00 0.00 81 1015.0
20260502115146 45 23 0.0 1.7 0.00 0.00 0.00 81 1015.0
20260502114644 44 351 1.7 1.7 0.00 0.00 0.00 80 1015.0
20260502114144 44 14 0.0 1.7 0.00 0.00 0.00 79 1015.0
20260502113645 44 351 2.6 2.6 0.00 0.00 0.00 79 1015.0
20260502113144 44 0 1.7 1.7 0.00 0.00 0.00 79 1015.0
20260502112644 44 26 0.9 1.7 0.00 0.00 0.00 78 1015.0
20260502112144 44 288 0.0 1.7 0.00 0.00 0.00 77 1016.0
20260502111644 45 281 2.6 2.6 0.00 0.00 0.00 77 1015.0
20260502111144 45 357 0.9 1.7 0.00 0.00 0.00 77 1015.0
20260502110644 45 31 0.0 0.0 0.00 0.00 0.00 78 1015.0
20260502110144 45 29 0.9 1.7 0.00 0.00 0.00 78 1015.0
20260502105645 45 47 2.6 4.3 0.00 0.00 0.00 77 1015.0
20260502105144 45 49 0.9 1.7 0.00 0.00 0.00 77 1015.0
20260502104644 45 73 0.9 1.7 0.00 0.00 0.00 76 1015.0
20260502104144 45 65 0.0 0.0 0.00 0.00 0.00 76 1015.0
20260502103644 46 44 0.0 0.0 0.00 0.00 0.00 76 1014.0
20260502103144 46 37 0.9 0.9 0.00 0.00 0.00 75 1015.0
20260502102644 46 46 0.9 1.7 0.00 0.00 0.00 75 1014.0
20260502102144 46 70 0.0 0.9 0.00 0.00 0.00 74 1014.0
20260502101645 47 80 0.0 0.0 0.00 0.00 0.00 74 1014.0
20260502101144 47 80 0.0 0.9 0.00 0.00 0.00 73 1014.0
20260502100644 48 78 0.9 1.7 0.00 0.00 0.00 73 1014.0
20260502100144 48 49 0.9 1.7 0.00 0.00 0.00 73 1014.0
20260502091145 50 358 3.5 5.2 0.00 0.00 0.00 71 1013.0
20260502090644 50 17 4.3 7.0 0.00 0.00 0.00 74 1013.0
20260502090146 50 23 5.2 7.0 0.00 0.00 0.00 74 1012.0
20260502071145 52 60 2.6 2.6 0.00 0.00 0.00 63 1012.0
20260502070644 52 54 2.6 4.3 0.00 0.00 0.00 62 1012.0
20260502070145 52 67 3.5 5.2 0.00 0.00 0.00 62 1011.0
20260502065644 52 67 4.3 6.1 0.00 0.00 0.00 61 1012.0
20260502065144 53 54 5.2 7.0 0.00 0.00 0.00 62 1011.0
20260502064645 53 49 4.3 6.1 0.00 0.00 0.00 61 1011.0
20260502064144 53 40 3.5 4.3 0.00 0.00 0.00 60 1011.0
20260502063644 53 28 0.9 1.7 0.00 0.00 0.00 60 1011.0
20260502063144 53 23 1.7 1.7 0.00 0.00 0.00 60 1011.0
20260502062645 53 33 1.7 1.7 0.00 0.00 0.00 60 1012.0
20260502062145 53 28 1.7 1.7 0.00 0.00 0.00 60 1011.0
20260502061645 53 33 0.0 0.0 0.00 0.00 0.00 59 1011.0
20260502061144 53 32 0.0 0.0 0.00 0.00 0.00 59 1011.0
20260502060644 53 4 0.9 1.7 0.00 0.00 0.00 60 1011.0
20260502060144 53 13 0.9 0.9 0.00 0.00 0.00 59 1011.0
20260502055645 53 344 1.7 1.7 0.00 0.00 0.01 59 1011.0
20260502055145 53 23 1.7 1.7 0.00 0.00 0.01 59 1011.0
20260502054645 53 358 2.6 2.6 0.00 0.00 0.01 59 1011.0
20260502054145 53 352 3.5 4.3 0.00 0.00 0.01 61 1011.0
20260502053645 53 355 2.6 4.3 0.00 0.00 0.01 60 1011.0
20260502053144 53 0 4.3 6.1 0.00 0.00 0.01 61 1011.0
20260502052644 52 355 4.3 6.1 0.00 0.00 0.01 61 1011.0
20260502052145 52 332 2.6 5.2 0.00 0.00 0.01 61 1011.0
20260502051644 52 346 3.5 5.2 0.00 0.00 0.01 63 1011.0
20260502051144 52 9 4.3 6.1 0.00 0.00 0.01 60 1011.0
20260502050646 52 5 3.5 4.3 0.00 0.00 0.01 60 1011.0
20260502050144 52 12 2.6 5.2 0.00 0.00 0.01 61 1011.0
20260502045646 52 348 3.5 6.1 0.00 0.00 0.01 61 1011.0
20260502045145 52 354 3.5 6.1 0.00 0.00 0.01 60 1010.0
20260502044644 52 328 4.3 6.1 0.00 0.00 0.01 57 1010.0
20260502044144 52 331 4.3 7.0 0.00 0.00 0.01 59 1010.0
20260502043644 52 321 4.3 6.1 0.00 0.00 0.01 58 1010.0
20260502043145 53 343 3.5 4.3 0.00 0.00 0.01 57 1010.0
20260502042645 53 359 0.9 2.6 0.00 0.00 0.01 56 1010.0
20260502042145 53 0 3.5 5.2 0.00 0.00 0.01 56 1010.0
20260502041644 54 319 2.6 7.0 0.00 0.00 0.01 55 1009.0
20260502041144 54 13 2.6 6.1 0.00 0.00 0.01 55 1009.0
20260502040645 54 1 5.2 7.8 0.00 0.00 0.01 57 1009.0
20260502040144 54 348 4.3 7.0 0.00 0.00 0.01 55 1009.0
20260502035645 55 347 3.5 7.0 0.00 0.00 0.01 54 1009.0
20260502035144 55 1 1.7 5.2 0.00 0.00 0.01 52 1008.0
20260502034645 56 320 4.3 6.1 0.00 0.00 0.01 52 1008.0
20260502034144 56 354 4.3 6.1 0.00 0.00 0.01 54 1008.0
20260502033644 56 30 5.2 7.0 0.00 0.00 0.01 54 1008.0
20260502033145 56 34 4.3 6.1 0.00 0.00 0.01 52 1007.0
20260502032644 56 2 4.3 6.1 0.00 0.00 0.01 53 1007.0
20260502032146 57 26 3.5 5.2 0.00 0.00 0.01 53 1007.0
20260502031645 57 345 6.1 8.7 0.00 0.00 0.01 52 1007.0
20260502031145 58 341 3.5 5.2 0.00 0.00 0.01 52 1007.0
20260502030644 58 330 6.1 7.8 0.00 0.00 0.01 50 1006.0
20260502030144 59 0 8.7 12.2 0.00 0.00 0.01 50 1006.0
20260502025644 59 4 9.6 13.0 0.00 0.00 0.01 50 1006.0
20260502025144 59 2 7.8 13.9 0.00 0.00 0.01 49 1006.0
20260502024644 59 5 8.7 13.9 0.00 0.00 0.01 49 1005.0
20260502024145 59 5 8.7 12.2 0.00 0.00 0.01 47 1005.0
20260502023644 59 359 9.6 13.9 0.00 0.00 0.01 47 1005.0
20260502023144 60 14 7.8 9.6 0.00 0.00 0.01 45 1005.0
20260502022646 60 353 7.8 9.6 0.00 0.00 0.01 44 1005.0
20260502022144 60 4 7.8 9.6 0.00 0.00 0.01 43 1004.0
20260502021645 61 1 8.7 12.2 0.00 0.00 0.01 43 1004.0
20260502021145 61 2 10.4 14.8 0.00 0.00 0.01 43 1004.0
20260502020644 61 341 9.6 13.0 0.00 0.00 0.01 43 1004.0
20260502020145 61 358 10.4 13.0 0.00 0.00 0.01 43 1003.0
20260502015644 62 349 7.0 13.9 0.00 0.00 0.01 42 1003.0
20260502015145 62 3 9.6 19.1 0.00 0.00 0.01 42 1003.0
20260502014644 62 346 8.7 9.6 0.00 0.00 0.01 41 1003.0
20260502014145 63 334 7.8 12.2 0.00 0.00 0.01 41 1002.0
20260502013645 63 9 7.8 14.8 0.00 0.00 0.01 40 1002.0
20260502013145 64 352 11.3 20.9 0.00 0.00 0.01 39 1002.0
20260502012645 64 302 10.4 20.0 0.00 0.00 0.01 39 1002.0
20260502012144 65 339 9.6 18.2 0.00 0.00 0.01 38 1001.0
20260502011644 65 344 11.3 18.2 0.00 0.00 0.01 38 1001.0
20260502011145 65 2 8.7 21.7 0.00 0.00 0.01 37 1001.0
20260502010645 66 11 8.7 19.1 0.00 0.00 0.01 36 1001.0
20260502010145 66 358 11.3 19.1 0.00 0.00 0.01 36 1000.0
20260502005645 67 316 8.7 15.6 0.00 0.00 0.01 35 1000.0
20260502005144 67 353 8.7 17.4 0.00 0.00 0.01 35 1000.0
20260502004645 67 358 18.2 20.9 0.00 0.00 0.01 34 1000.0
20260502004145 68 357 13.9 22.6 0.00 0.00 0.01 34 1000.0
20260502003645 68 345 13.9 20.0 0.00 0.00 0.01 33 1000.0
20260502003144 68 1 14.8 21.7 0.00 0.00 0.01 33 999.0
20260502002645 68 355 8.7 15.6 0.00 0.00 0.01 33 999.0
20260502002144 68 353 13.0 20.0 0.00 0.00 0.01 32 999.0
20260502001644 69 337 11.3 19.1 0.00 0.00 0.01 32 999.0
20260502001145 69 354 10.4 18.2 0.00 0.00 0.01 31 999.0
20260502000644 69 2 13.9 19.1 0.00 0.00 0.01 31 999.0
20260502000144 69 330 13.0 17.4 0.00 0.00 0.01 32 999.0
20260501235645 69 355 14.8 19.1 0.00 0.00 0.01 31 999.0
20260501235144 69 358 13.0 20.0 0.00 0.00 0.01 31 999.0
20260501234644 69 7 13.0 21.7 0.00 0.00 0.01 31 999.0
20260501234144 69 359 15.6 21.7 0.00 0.00 0.01 31 998.0
20260501233646 70 358 18.2 20.0 0.00 0.00 0.01 30 998.0
20260501233145 70 358 16.5 20.9 0.00 0.00 0.01 30 998.0
20260501232645 70 2 14.8 20.9 0.00 0.00 0.01 30 998.0
20260501232145 70 2 15.6 20.0 0.00 0.00 0.01 31 998.0
20260501231644 70 11 13.9 20.0 0.00 0.00 0.01 30 998.0
20260501231145 70 358 13.9 19.1 0.00 0.00 0.01 30 998.0
20260501230203 69 341 16.5 20.0 0.00 0.00 0.01 31 998.0
20260501225644 69 354 13.0 19.1 0.00 0.00 0.01 31 999.0
20260501225145 69 6 13.0 15.6 0.00 0.00 0.01 31 998.0
20260501224644 70 353 12.2 18.2 0.00 0.00 0.01 30 998.0
20260501224145 71 346 13.0 20.9 0.00 0.00 0.01 29 998.0
20260501223644 71 352 11.3 20.9 0.00 0.00 0.01 29 997.0
20260501223144 71 354 7.0 12.2 0.00 0.00 0.01 30 997.0
20260501222644 71 319 13.0 20.9 0.00 0.00 0.01 29 997.0
20260501222144 72 359 10.4 19.1 0.00 0.00 0.01 28 997.0
20260501221646 73 12 7.0 21.7 0.00 0.00 0.01 27 996.0
20260501221145 72 325 14.8 20.0 0.00 0.00 0.01 28 997.0
20260501220644 72 345 11.3 18.2 0.00 0.00 0.01 27 997.0
20260501220144 73 2 13.9 20.0 0.00 0.00 0.01 27 997.0
20260501215645 73 357 16.5 19.1 0.00 0.00 0.01 27 996.0
20260501215144 73 346 7.8 18.2 0.00 0.00 0.01 27 996.0
20260501214645 75 7 22.6 25.2 0.00 0.00 0.01 26 996.0
20260501214145 75 9 8.7 11.3 0.00 0.00 0.01 25 995.0
20260501213644 75 295 8.7 9.6 0.00 0.00 0.01 25 995.0
20260501213144 75 308 10.4 17.4 0.00 0.00 0.01 20 995.0
20260501212644 75 288 11.3 20.0 0.00 0.00 0.01 20 995.0
20260501212145 75 318 13.0 19.1 0.00 0.00 0.01 20 996.0
20260501211645 74 246 8.7 15.6 0.00 0.00 0.01 23 996.0
20260501211147 75 259 9.6 14.8 0.00 0.00 0.01 21 996.0
20260501210644 75 291 7.8 14.8 0.00 0.00 0.01 22 996.0
20260501210145 74 261 8.7 15.6 0.00 0.00 0.01 22 996.0
20260501205644 74 278 12.2 23.5 0.00 0.00 0.01 22 996.0
20260501205145 74 228 8.7 13.9 0.00 0.00 0.01 23 996.0
20260501204650 74 19 4.3 7.8 0.00 0.00 0.01 22 996.0
20260501204145 74 240 5.2 13.0 0.00 0.00 0.01 21 997.0
20260501203644 74 280 16.5 20.0 0.00 0.00 0.01 21 997.0
20260501203144 73 338 7.8 13.9 0.00 0.00 0.01 22 997.0
20260501202645 72 287 13.9 18.2 0.00 0.00 0.01 22 997.0
20260501202144 73 319 4.3 9.6 0.00 0.00 0.01 22 997.0
20260501201644 73 328 7.0 9.6 0.00 0.00 0.01 23 997.0
20260501201144 73 303 9.6 11.3 0.00 0.00 0.01 23 997.0
20260501200644 73 358 7.8 11.3 0.00 0.00 0.01 23 997.0
20260501200145 73 305 7.8 21.7 0.00 0.00 0.01 22 997.0
20260501195644 73 326 13.0 18.2 0.00 0.00 0.01 22 997.0
20260501195145 73 340 11.3 15.6 0.00 0.00 0.01 23 997.0
20260501194644 73 259 13.0 17.4 0.00 0.00 0.01 23 997.0
20260501194144 72 326 10.4 17.4 0.00 0.00 0.01 22 997.0
20260501193644 72 287 9.6 12.2 0.00 0.00 0.01 23 998.0
20260501193145 72 288 14.8 19.1 0.00 0.00 0.01 23 997.0
20260501192645 72 317 21.7 27.8 0.00 0.00 0.01 22 997.0
20260501192144 72 297 6.1 18.2 0.00 0.00 0.01 24 997.0
20260501191644 72 295 15.6 17.4 0.00 0.00 0.01 23 998.0
20260501191144 72 292 8.7 14.8 0.00 0.00 0.01 25 998.0
20260501190645 72 277 5.2 9.6 0.00 0.00 0.01 25 998.0
20260501190144 71 321 9.6 15.6 0.00 0.00 0.01 24 998.0
20260501185645 71 292 13.0 15.6 0.00 0.00 0.01 25 998.0
20260501185145 71 286 6.1 12.2 0.00 0.00 0.01 27 998.0
20260501184645 71 281 9.6 13.0 0.00 0.00 0.01 28 999.0
20260501184144 70 288 7.8 8.7 0.00 0.00 0.01 25 999.0
20260501183644 71 285 12.2 13.9 0.00 0.00 0.01 26 999.0
20260501183144 70 292 10.4 12.2 0.00 0.00 0.01 28 999.0
20260501182645 70 229 10.4 14.8 0.00 0.00 0.01 28 999.0
20260501182144 70 268 6.1 9.6 0.00 0.00 0.01 28 999.0
20260501181645 69 321 13.9 15.6 0.00 0.00 0.01 29 999.0
20260501181144 69 206 8.7 15.6 0.00 0.00 0.01 29 1000.0
20260501180644 69 256 11.3 13.0 0.00 0.00 0.01 29 1000.0
20260501180145 68 267 8.7 15.6 0.00 0.00 0.01 30 1000.0
20260501175644 68 254 10.4 14.8 0.00 0.00 0.01 30 1000.0
20260501175145 68 280 11.3 20.0 0.00 0.00 0.01 30 1000.0
20260501174644 68 276 12.2 14.8 0.00 0.00 0.01 31 1000.0
20260501174148 67 266 17.4 21.7 0.00 0.00 0.01 31 1001.0
20260501173644 67 253 10.4 13.9 0.00 0.00 0.01 32 1001.0
20260501173144 67 283 13.9 18.2 0.00 0.00 0.01 32 1001.0
20260501172645 66 247 7.8 15.6 0.00 0.00 0.01 34 1001.0
20260501172145 66 267 16.5 19.1 0.00 0.00 0.01 33 1001.0
20260501171644 66 255 13.9 20.0 0.00 0.00 0.01 32 1001.0
20260501171144 66 252 9.6 19.1 0.00 0.00 0.01 34 1001.0
20260501170645 66 265 18.2 23.5 0.00 0.00 0.01 35 1001.0
20260501170145 65 241 18.2 20.0 0.00 0.00 0.01 37 1001.0
20260501165644 65 236 14.8 20.0 0.00 0.00 0.01 37 1001.0
20260501165144 65 250 13.9 19.1 0.00 0.00 0.01 34 1002.0
20260501164644 64 211 7.0 9.6 0.00 0.00 0.01 38 1002.0
20260501164145 64 251 13.0 20.0 0.00 0.00 0.01 38 1002.0
20260501163645 64 250 10.4 15.6 0.00 0.00 0.01 40 1002.0
20260501163145 63 244 16.5 29.5 0.00 0.00 0.01 43 1002.0
20260501162646 63 246 9.6 14.8 0.00 0.00 0.01 46 1002.0
20260501162147 62 234 12.2 14.8 0.00 0.00 0.01 46 1003.0
20260501161644 62 256 12.2 19.1 0.00 0.00 0.01 46 1002.0
20260501161144 62 231 7.0 14.8 0.00 0.00 0.01 46 1003.0
20260501160644 61 253 12.2 15.6 0.00 0.00 0.01 48 1003.0
20260501160144 61 254 9.6 15.6 0.00 0.00 0.01 50 1003.0
20260501155644 61 254 10.4 15.6 0.00 0.00 0.01 49 1003.0
20260501155144 62 268 14.8 17.4 0.00 0.00 0.01 51 1003.0
20260501154645 61 244 9.6 13.0 0.00 0.00 0.01 55 1003.0
20260501154144 61 264 11.3 20.9 0.00 0.00 0.01 52 1003.0
20260501153644 60 228 10.4 18.2 0.00 0.00 0.01 56 1004.0
20260501153144 60 249 10.4 15.6 0.00 0.00 0.01 56 1004.0
20260501152644 59 222 9.6 14.8 0.00 0.00 0.01 61 1004.0
20260501152144 59 239 7.8 21.7 0.00 0.00 0.01 61 1004.0
20260501151645 58 281 7.8 8.7 0.00 0.00 0.01 64 1005.0
20260501151145 57 261 2.6 7.8 0.00 0.00 0.01 67 1005.0
20260501150645 57 165 5.2 9.6 0.00 0.00 0.01 67 1005.0
20260501150144 57 112 1.7 2.6 0.00 0.00 0.01 68 1005.0
20260501145645 56 164 0.0 0.9 0.00 0.00 0.01 69 1005.0
20260501145145 56 149 4.3 5.2 0.00 0.00 0.01 73 1005.0
20260501144644 55 95 0.0 0.0 0.00 0.00 0.01 71 1006.0
20260501144145 55 164 3.5 5.2 0.00 0.00 0.01 72 1006.0
20260501143645 55 153 2.6 4.3 0.00 0.00 0.01 74 1006.0
20260501143145 54 127 4.3 5.2 0.00 0.00 0.01 73 1006.0
20260501142646 54 104 3.5 4.3 0.00 0.00 0.01 73 1006.0
20260501142145 54 106 2.6 2.6 0.00 0.00 0.01 76 1006.0